Wind_Speed
46 47 48 48 49 49 50 50 50 50 50 50 49 48 48 47 47 47 47 47 47 47 47 47 46 47 47 47 48 48 48 49 49 49 49 49 50 50 50 51 51 50 50
45 45 46 46 47 48 48 49 50 50 51 50 49 49 48 48 48 48 48 48 48 48 48 48 48 49 48 48 48 48 49 49 50 50 50 50 50 50 50 52 53 52 52
44 44 46 46 47 47 47 48 49 50 50 50 49 49 48 48 48 48 48 48 48 48 49 49 49 50 49 49 48 49 49 49 50 50 50 50 50 50 51 52 53 54 53
43 44 45 46 47 47 46 47 47 48 49 49 49 49 48 47 47 47 48 48 48 48 48 48 49 49 50 49 49 49 49 50 50 51 51 51 51 51 51 52 53 54 54
42 43 44 45 45 46 46 46 46 47 48 49 49 49 49 48 48 47 47 48 48 48 47 47 47 48 48 48 48 49 49 49 50 51 51 51 51 51 51 52 52 53 54
41 42 43 44 45 46 46 46 46 46 47 47 48 48 48 48 47 47 46 46 47 47 47 47 47 47 47 47 48 48 48 48 50 51 51 51 51 51 51 52 52 53 53
39 40 41 42 43 44 45 46 46 46 47 47 48 48 48 48 47 47 46 46 47 47 47 47 46 46 46 47 47 48 49 49 49 50 51 51 51 52 52 52 52 52 53
38 39 40 41 42 43 43 44 45 46 46 46 46 47 47 47 47 47 46 46 47 47 47 46 46 46 47 47 47 48 49 48 49 50 51 51 51 52 53 52 52 52 53
37 38 38 39 40 41 42 42 43 44 45 44 44 45 45 45 46 46 46 46 47 47 46 46 47 46 47 48 48 48 49 49 49 50 50 51 51 52 53 53 53 53 53
37 37 38 38 39 40 41 41 42 43 43 44 44 44 45 45 46 46 46 47 47 47 48 48 47 47 47 48 48 49 49 49 50 50 51 51 51 52 53 53 53 53 53
37 38 38 38 38 39 39 40 41 42 43 44 44 44 44 45 46 45 45 46 47 47 48 48 47 47 47 47 48 48 49 50 51 51 51 51 51 52 52 53 53 53 53
37 38 38 38 38 38 39 39 40 41 42 43 43 44 44 45 46 45 45 46 46 47 47 47 47 47 47 48 48 48 49 50 51 52 52 51 51 51 52 52 52 52 52
36 37 37 37 38 38 38 39 39 40 41 42 43 44 44 45 45 44 45 46 46 47 47 47 47 47 47 47 47 48 49 50 51 51 51 51 52 52 52 52 52 52 51
36 37 37 37 38 38 38 39 39 40 40 41 42 43 44 44 43 43 44 45 46 46 46 46 47 47 47 47 47 48 49 50 50 51 51 51 51 51 51 51 52 52 51
34 36 36 36 37 37 38 39 39 39 39 40 41 42 43 42 42 42 43 43 43 44 45 45 46 46 46 46 47 47 48 48 49 49 49 49 49 49 50 50 50 50 50
32 33 35 35 36 36 36 36 37 37 38 39 39 40 41 42 42 41 41 41 41 42 43 43 43 44 44 45 46 46 46 47 47 47 47 48 48 48 48 49 48 48 48
31 31 32 34 35 36 35 36 36 36 36 37 38 40 40 41 41 40 39 39 40 41 42 42 43 44 44 45 45 45 45 45 46 46 46 47 47 47 47 47 47 47 46
31 31 31 32 33 34 35 35 35 35 36 36 38 39 40 40 39 39 39 39 40 40 41 42 43 44 44 45 44 44 45 45 45 46 46 46 46 46 46 46 45 46 46
30 31 32 32 32 32 33 34 34 35 36 36 37 37 38 38 39 39 40 40 41 41 41 41 41 42 43 43 43 43 44 44 45 46 46 46 46 46 45 44 44 44 44
30 30 31 31 31 32 32 33 33 34 35 35 35 36 37 37 38 39 40 41 41 41 40 40 41 41 41 41 42 43 43 44 45 45 45 45 45 45 44 43 43 43 43
29 30 30 31 31 32 32 33 33 34 34 35 35 35 36 37 37 38 39 39 39 40 40 40 40 40 40 41 41 42 43 43 44 44 44 44 44 43 43 42 42 42 42
29 29 30 30 31 32 33 33 33 33 34 34 35 35 36 37 37 38 38 38 39 39 39 39 40 39 40 40 40 40 41 41 42 42 42 42 41 41 42 42 42 42 41
28 28 29 30 31 32 32 33 34 34 34 35 35 36 36 36 36 36 36 37 37 37 37 38 38 38 38 38 39 39 39 39 40 40 39 39 39 39 40 40 40 40 39
28 28 29 30 30 31 32 33 33 34 35 35 35 35 35 35 35 35 35 36 36 36 36 36 36 36 37 37 37 37 37 37 37 37 37 37 38 38 37 37 37 37 37
28 28 29 30 30 31 31 32 32 33 33 34 34 34 34 34 34 34 35 35 35 35 35 35 35 35 35 35 35 35 35 36 36 35 35 35 36 36 36 35 35 35 35
29 29 29 29 30 30 31 31 31 32 32 32 32 33 33 33 34 34 34 34 34 33 33 33 33 33 34 34 34 34 34 34 34 34 34 34 34 34 34 34 35 35 34
Wind_Direction
251 251 251 250 250 251 253 253 253 254 255 257 258 260 261 261 261 261 262 261 261 261 261 261 260 260 260 259 259 260 261 261 262 262 262 263 263 263 264 264 265 265 265
252 252 251 251 251 252 253 253 253 255 255 256 258 259 259 260 261 261 262 261 261 261 261 261 260 260 260 260 260 260 261 262 263 263 263 263 265 265 264 265 265 265 265
251 251 251 251 251 252 254 254 254 255 255 256 257 258 259 260 261 262 261 261 261 261 261 261 261 261 260 260 260 261 262 263 263 263 263 263 265 266 266 266 265 265 266
251 251 252 252 252 253 254 255 255 255 255 256 257 258 259 259 261 262 261 262 262 261 261 261 262 262 261 260 261 262 262 263 263 263 264 264 265 267 267 267 267 266 267
252 253 252 252 253 254 255 256 256 255 256 256 257 257 258 258 259 261 261 262 262 262 262 262 262 261 261 261 261 262 263 264 264 264 264 265 265 267 267 268 268 268 267
254 254 254 254 254 254 256 256 256 256 256 256 256 256 257 257 259 259 260 261 261 261 261 261 262 261 262 262 262 262 263 264 264 264 265 265 265 267 268 269 269 269 268
256 256 256 255 255 256 257 257 257 257 258 258 258 257 257 257 257 258 260 260 260 261 261 261 261 262 262 263 262 263 263 264 265 265 266 265 266 267 269 270 271 271 270
257 257 257 256 256 257 258 258 258 258 258 258 258 257 256 256 256 258 259 260 260 261 261 261 261 262 262 263 262 263 263 264 266 266 266 267 267 268 270 271 271 271 271
258 258 258 257 257 258 258 258 258 258 258 258 258 257 256 256 257 258 259 260 260 261 260 261 262 264 264 264 263 262 263 265 266 267 267 268 269 270 270 271 271 272 271
258 259 259 259 259 258 257 258 258 258 259 258 258 258 257 258 258 258 259 260 260 260 261 261 262 264 266 264 263 263 263 265 266 267 268 269 269 270 271 271 272 272 272
258 258 258 260 260 258 258 258 258 258 258 259 258 258 258 258 258 259 260 261 260 260 260 260 262 264 265 264 264 264 264 265 266 267 268 269 269 270 271 272 273 273 272
259 259 259 259 259 259 259 259 259 259 259 259 259 259 258 259 260 261 262 262 262 261 261 260 262 264 264 264 264 265 265 266 267 267 268 269 270 270 271 272 272 273 272
260 260 259 259 259 260 260 260 261 261 260 260 260 260 260 260 260 262 263 263 263 262 261 261 262 264 265 265 265 266 266 267 267 268 268 269 270 270 271 272 272 272 272
261 261 261 261 261 260 261 262 262 262 262 262 261 261 261 261 262 263 263 263 263 262 262 262 263 265 265 266 266 267 267 267 267 268 268 269 269 270 271 272 272 272 272
263 262 263 262 261 261 261 263 262 261 261 262 262 263 262 261 263 265 264 263 262 263 263 263 263 265 266 267 267 266 266 266 266 267 268 269 270 270 272 272 272 272 272
264 264 264 264 263 263 263 263 263 262 261 262 263 264 263 262 263 265 263 262 263 263 263 263 264 265 266 266 266 266 266 266 266 267 269 270 270 271 272 273 273 272 272
265 265 265 264 264 264 264 264 264 264 263 263 263 263 263 264 264 264 263 263 264 264 264 265 265 266 267 267 266 266 266 266 267 268 269 269 270 270 271 272 273 272 272
266 266 265 265 265 264 264 264 264 264 264 265 264 263 263 264 263 263 263 264 265 266 266 266 266 267 267 267 266 266 266 267 267 268 268 269 270 271 272 272 271 271 270
268 268 267 267 267 267 266 266 265 265 265 266 265 264 264 264 264 264 265 266 267 267 267 267 267 268 267 267 267 267 267 268 268 268 268 269 270 271 271 271 270 270 270
269 269 267 267 268 268 268 268 268 268 267 266 266 265 265 266 266 266 267 268 268 268 267 267 268 268 268 268 268 268 268 268 268 268 268 269 270 270 270 269 269 269 269
272 270 269 269 269 269 269 269 269 268 268 268 267 267 267 267 268 268 268 268 268 268 268 268 269 269 269 269 269 269 269 269 268 269 269 269 269 269 269 268 268 269 270
274 273 272 272 272 271 271 269 268 268 268 268 268 268 268 268 269 269 269 268 268 268 269 270 271 271 271 270 270 270 269 269 268 268 268 269 268 268 267 268 268 269 270
277 277 276 276 275 274 273 271 270 269 269 269 269 270 270 270 270 270 270 270 269 269 270 271 272 272 271 270 269 269 269 269 269 269 268 268 268 268 268 268 269 269 269
280 279 278 277 276 275 274 273 272 271 270 269 269 270 270 270 270 270 270 270 270 270 271 272 272 272 271 270 270 269 268 268 267 267 268 268 268 269 268 268 268 268 268
281 281 280 279 279 278 277 275 274 273 273 271 270 270 270 270 269 269 270 270 271 271 272 272 272 272 271 270 270 269 269 268 268 268 268 269 268 268 267 267 267 267 267
281 281 281 281 281 280 279 277 275 275 274 273 272 271 271 270 269 269 270 271 272 272 273 274 273 271 271 271 270 269 269 268 268 268 268 268 268 268 267 267 267 267 266
Height
5587 5589 5590 5592 5594 5596 5598 5600 5602 5604 5606 5607 5608 5609 5610 5611 5612 5613 5614 5615 5615 5616 5617 5618 5619 5620 5621 5623 5624 5626 5627 5629 5630 5632 5633 5634 5634 5635 5636 5637 5638 5639 5640
5575 5577 5578 5580 5582 5584 5586 5588 5589 5591 5593 5594 5595 5597 5598 5599 5600 5601 5602 5602 5603 5604 5605 5606 5607 5608 5609 5611 5612 5614 5615 5616 5618 5619 5620 5621 5621 5622 5623 5623 5624 5625 5625
5563 5565 5566 5568 5570 5571 5573 5575 5576 5578 5580 5581 5582 5584 5585 5587 5587 5588 5589 5589 5590 5591 5592 5593 5594 5595 5597 5598 5600 5602 5603 5604 5605 5606 5607 5608 5608 5608 5609 5610 5610 5611 5611
5551 5552 5554 5556 5557 5559 5560 5562 5563 5564 5566 5568 5570 5571 5572 5574 5575 5575 5576 5577 5578 5579 5579 5580 5581 5583 5584 5586 5587 5589 5590 5591 5592 5593 5594 5594 5595 5595 5595 5596 5596 5596 5597
5539 5540 5541 5543 5544 5546 5547 5548 5550 5551 5553 5555 5556 5558 5559 5561 5562 5562 5563 5564 5565 5566 5567 5568 5569 5570 5572 5573 5575 5576 5577 5578 5579 5580 5580 5581 5582 5582 5582 5582 5582 5582 5582
5527 5528 5529 5530 5532 5533 5534 5536 5537 5538 5540 5541 5543 5545 5546 5548 5549 5550 5550 5551 5552 5553 5555 5556 5557 5558 5559 5561 5562 5563 5564 5565 5566 5566 5567 5568 5568 5568 5568 5568 5568 5568 5568
5516 5516 5517 5518 5519 5520 5522 5523 5524 5526 5527 5528 5530 5531 5533 5535 5536 5537 5537 5538 5540 5541 5542 5543 5544 5546 5547 5548 5549 5550 5551 5551 5553 5554 5554 5554 5555 5555 5555 5554 5553 5553 5553
5505 5505 5505 5506 5507 5508 5509 5511 5512 5513 5515 5516 5517 5518 5520 5521 5523 5524 5524 5526 5527 5528 5529 5530 5532 5533 5534 5535 5536 5537 5538 5539 5539 5540 5541 5541 5541 5540 5540 5540 5539 5538 5538
5494 5494 5494 5495 5496 5496 5497 5498 5500 5501 5502 5503 5504 5505 5507 5508 5510 5511 5511 5513 5514 5515 5516 5517 5519 5520 5521 5521 5522 5524 5525 5525 5525 5526 5526 5526 5526 5526 5525 5525 5524 5524 5524
5483 5484 5484 5484 5484 5485 5486 5487 5488 5489 5490 5491 5492 5493 5495 5496 5497 5498 5499 5500 5501 5503 5504 5505 5506 5507 5507 5507 5508 5510 5511 5511 5511 5512 5512 5512 5512 5511 5511 5510 5509 5509 5508
5472 5472 5473 5473 5473 5474 5474 5475 5476 5477 5478 5479 5480 5481 5482 5483 5484 5485 5486 5487 5488 5489 5490 5491 5492 5493 5493 5493 5494 5496 5496 5497 5497 5497 5498 5497 5497 5497 5496 5495 5494 5494 5493
5460 5461 5461 5461 5462 5462 5463 5463 5464 5464 5465 5466 5467 5468 5469 5470 5471 5472 5473 5474 5474 5476 5477 5478 5478 5479 5479 5480 5480 5481 5482 5482 5482 5483 5483 5483 5482 5482 5482 5481 5480 5479 5478
5449 5449 5449 5450 5450 5451 5451 5452 5452 5453 5454 5454 5455 5456 5457 5458 5459 5459 5460 5461 5461 5462 5463 5464 5464 5465 5465 5466 5466 5466 5467 5467 5467 5468 5468 5468 5468 5467 5466 5466 5465 5464 5463
5438 5438 5438 5438 5439 5439 5440 5440 5441 5441 5441 5442 5443 5444 5445 5445 5446 5447 5447 5448 5448 5449 5449 5450 5451 5451 5451 5452 5452 5452 5452 5452 5452 5453 5453 5453 5453 5452 5452 5451 5450 5450 5449
5427 5427 5427 5427 5428 5428 5428 5428 5429 5429 5429 5430 5431 5432 5433 5433 5434 5434 5434 5435 5435 5436 5436 5437 5437 5438 5438 5438 5438 5438 5438 5438 5438 5438 5438 5438 5438 5438 5437 5436 5435 5435 5434
5416 5416 5416 5416 5417 5417 5417 5417 5417 5417 5417 5418 5419 5420 5420 5421 5421 5421 5421 5422 5422 5423 5423 5424 5424 5424 5424 5424 5424 5424 5423 5423 5423 5423 5424 5424 5423 5423 5423 5422 5421 5420 5420
5406 5406 5406 5406 5406 5406 5406 5406 5406 5406 5405 5406 5406 5407 5408 5408 5408 5409 5409 5409 5410 5410 5411 5411 5411 5411 5411 5410 5410 5410 5410 5409 5409 5409 5410 5409 5409 5409 5408 5407 5407 5406 5405
5396 5396 5396 5395 5395 5395 5395 5395 5395 5395 5395 5394 5395 5395 5395 5396 5396 5396 5397 5397 5397 5398 5398 5398 5398 5397 5397 5397 5396 5396 5396 5396 5396 5396 5396 5396 5395 5395 5394 5393 5393 5392 5392
5386 5386 5386 5385 5385 5384 5384 5383 5383 5383 5384 5384 5384 5384 5384 5384 5384 5384 5384 5385 5385 5385 5385 5385 5384 5384 5383 5383 5383 5383 5383 5383 5382 5382 5382 5382 5381 5381 5380 5379 5379 5378 5378
5377 5376 5375 5375 5374 5374 5373 5373 5373 5373 5373 5373 5373 5372 5372 5372 5372 5372 5372 5372 5372 5372 5372 5372 5372 5371 5370 5370 5370 5369 5369 5369 5368 5368 5368 5368 5367 5367 5366 5366 5365 5365 5365
5367 5366 5366 5365 5364 5363 5363 5362 5362 5362 5362 5362 5362 5361 5361 5361 5361 5360 5360 5360 5360 5360 5359 5359 5358 5358 5357 5357 5356 5356 5355 5355 5355 5354 5354 5354 5353 5353 5353 5353 5352 5352 5352
5357 5357 5356 5355 5354 5353 5352 5352 5351 5351 5351 5350 5350 5350 5349 5349 5349 5348 5348 5348 5347 5347 5346 5346 5345 5344 5344 5343 5343 5342 5342 5341 5341 5341 5340 5340 5339 5339 5339 5339 5339 5339 5339
5348 5347 5346 5345 5344 5343 5342 5341 5340 5340 5339 5339 5338 5338 5337 5337 5336 5336 5335 5335 5335 5334 5333 5333 5332 5331 5330 5330 5329 5329 5329 5328 5328 5327 5327 5327 5327 5326 5326 5326 5326 5326 5326
5339 5338 5336 5335 5334 5333 5331 5330 5329 5329 5328 5327 5327 5326 5326 5325 5325 5324 5324 5323 5323 5322 5321 5321 5320 5319 5318 5317 5317 5316 5316 5316 5315 5315 5315 5315 5315 5314 5314 5314 5314 5314 5314
5329 5328 5326 5325 5323 5322 5321 5319 5318 5317 5316 5315 5315 5314 5314 5313 5313 5312 5312 5312 5311 5311 5310 5309 5308 5307 5306 5305 5305 5304 5304 5304 5304 5303 5303 5303 5303 5303 5303 5303 5303 5303 5303
5320 5318 5316 5315 5313 5312 5310 5309 5307 5306 5305 5304 5303 5303 5302 5302 5301 5301 5301 5300 5300 5299 5298 5297 5296 5295 5295 5294 5293 5293 5293 5292 5292 5292 5292 5292 5292 5291 5291 5291 5291 5291 5292